Weather History for Bartlesville, OK

Change the Weather History Date:

Wednesday, December 12, 2012

  Actual Average Record
Temperature  
Mean Temperature 34 °F -  
Max Temperature 52 °F 49 °F 68 °F (1949)
Min Temperature 17 °F 28 °F 1 °F (1962)
Degree Days  
Heating Degree Days 30    
Moisture  
Dew Point 14 °F    
Average Humidity 48    
Maximum Humidity 92    
Minimum Humidity 19    
Precipitation  
Precipitation 0.00 in - - ()
Sea Level Pressure  
Sea Level Pressure 30.21 in    
Wind  
Wind Speed 5 mph (South)    
Max Wind Speed 17 mph    
Max Gust Speed 23 mph    
Visibility 10 miles    
Events      
Averages and records for this station are not official NWS values.
T = Trace of Precipitation, MM = Missing Value Source: NWS Daily Summary

Daily Weather History Graph

Daily Weather History Graph

Search for Another Location

Airport:

Trip Planner

Search our weather history database for the weather conditions in past years. The results will help you decide how hot, cold, wet, or windy it might be!

Date:

Astronomy

Dec. 12, 2012 Rise Set
Actual Time 7:27 AM CST 5:08 PM CST
Civil Twilight 6:58 AM CST 5:37 PM CST
Nautical Twilight 6:26 AM CST 6:09 PM CST
Astronomical Twilight 5:54 AM CST 6:41 PM CST
Moon 6:33 AM CST (12/12) 4:46 PM CST (12/12)
Length of Visible Light 10h 38m
Length of Day
9h 40m
Waning Crescent, 1% of the Moon is Illuminated
Dec 12
Waning Crescent
Dec 13
New
Dec 19
First Quarter
Dec 28
Full
Jan 4
Last Quarter

Hourly Weather History & Observations

Time (CST) Temp. Windchill Dew Point Humidity Pressure Visibility Wind Dir Wind Speed Gust Speed Precip Events Conditions
12:53 AM 21.0 °F - 16.0 °F 81% 30.22 in 10.0 mi Calm Calm - N/A   Clear
1:53 AM 19.0 °F - 15.1 °F 85% 30.21 in 10.0 mi Calm Calm - N/A   Clear
2:53 AM 17.1 °F - 15.1 °F 92% 30.21 in 10.0 mi Calm Calm - N/A   Clear
3:53 AM 19.9 °F - 15.1 °F 81% 30.22 in 10.0 mi Calm Calm - N/A   Clear
4:53 AM 18.0 °F - 14.0 °F 84% 30.22 in 10.0 mi Calm Calm - N/A   Clear
5:53 AM 19.0 °F - 15.1 °F 85% 30.24 in 10.0 mi Calm Calm - N/A   Clear
6:53 AM 19.0 °F - 14.0 °F 81% 30.25 in 10.0 mi Calm Calm - N/A   Clear
7:53 AM 23.0 °F 17.0 °F 15.1 °F 72% 30.27 in 10.0 mi South 4.6 mph - N/A   Clear
8:53 AM 28.9 °F 23.9 °F 19.9 °F 69% 30.28 in 10.0 mi South 4.6 mph - N/A   Clear
9:53 AM 41.0 °F 35.8 °F 18.0 °F 40% 30.30 in 10.0 mi South 8.1 mph - N/A   Clear
10:53 AM 46.9 °F - 15.1 °F 28% 30.29 in 10.0 mi South 13.8 mph 19.6 mph N/A   Clear
11:53 AM 48.9 °F - 12.9 °F 24% 30.25 in 10.0 mi SSW 17.3 mph 23.0 mph N/A   Clear
12:53 PM 51.1 °F - 12.0 °F 21% 30.22 in 10.0 mi South 11.5 mph 20.7 mph N/A   Clear
1:53 PM 52.0 °F - 10.0 °F 19% 30.18 in 10.0 mi South 15.0 mph 23.0 mph N/A   Clear
2:53 PM 52.0 °F - 12.0 °F 20% 30.18 in 10.0 mi South 13.8 mph 21.9 mph N/A   Clear
3:53 PM 51.1 °F - 10.0 °F 19% 30.17 in 10.0 mi South 12.7 mph 21.9 mph N/A   Clear
4:53 PM 46.9 °F - 12.0 °F 24% 30.17 in 10.0 mi SSE 13.8 mph - N/A   Clear
5:53 PM 42.1 °F 37.1 °F 12.9 °F 31% 30.17 in 10.0 mi SSE 8.1 mph - N/A   Clear
6:53 PM 42.1 °F 36.6 °F 14.0 °F 32% 30.17 in 10.0 mi South 9.2 mph - N/A   Clear
7:53 PM 37.9 °F 33.5 °F 12.0 °F 35% 30.17 in 10.0 mi South 5.8 mph - N/A   Clear
8:53 PM 39.9 °F 35.8 °F 10.0 °F 29% 30.19 in 10.0 mi South 5.8 mph - N/A   Clear
9:53 PM 41.0 °F 36.4 °F 10.9 °F 29% 30.17 in 10.0 mi South 6.9 mph - N/A   Clear
10:53 PM 39.0 °F 33.4 °F 12.0 °F 33% 30.20 in 10.0 mi South 8.1 mph - N/A   Clear
11:53 PM 37.9 °F 31.5 °F 14.0 °F 38% 30.20 in 10.0 mi SSE 9.2 mph - N/A   Clear